Montgomery, NY

10:14 PM EDT on October 14, 2019 (GMT -0400)
Orange County

Weather History for KMGJ - July, 2019

Change the Weather History Date:

Monday, July 15, 2019

  Actual Average (KSWF) Record (KSWF)
Temperature  
Mean Temperature 71 °F -  
Max Temperature 87 °F 80 °F 95 °F (1997)
Min Temperature 55 °F 60 °F 51 °F (1989)
Cooling Degree Days 6    
Growing Degree Days 21 (Base 50)    
Moisture  
Dew Point 57 °F    
Average Humidity 65    
Maximum Humidity 96    
Minimum Humidity 32    
Precipitation  
Precipitation 0.00 in - - ()
Sea Level Pressure  
Sea Level Pressure 30.04 in    
Wind  
Wind Speed 4 mph (WSW)    
Max Wind Speed 12 mph    
Max Gust Speed -    
Visibility 10 miles    
Events      
Averages and records for this station are not official NWS values.
T = Trace of Precipitation, MM = Missing Value Source: NWS Daily Summary

Daily Weather History Graph

Daily Weather History Graph

Search for Another Location

Airport or City:

Astronomy

Jul. 15, 2019 Rise Set
Actual Time 5:36 AM EDT 8:29 PM EDT
Civil Twilight 5:03 AM EDT 9:02 PM EDT
Nautical Twilight 4:21 AM EDT 9:43 PM EDT
Astronomical Twilight 3:33 AM EDT 10:32 PM EDT
Moon 7:45 PM EDT 4:21 AM EDT
Length of Visible Light 15h 59m
Length of Day
14h 53m
Waxing Gibbous, 98% of the Moon is Illuminated
Jul 15
Waxing Gibbous
Jul 16
Full
Jul 24
Last Quarter
Jul 31
New
Aug 7
First Quarter

Hourly Weather History & Observations

Time (EDT) Temp. Heat Index Dew Point Humidity Pressure Visibility Wind Dir Wind Speed Gust Speed Precip Events Conditions
12:54 AM 60.1 °F - 55.9 °F 86% 30.03 in 10.0 mi SW 3.5 mph - N/A   Clear
1:54 AM 59.0 °F - 55.9 °F 90% 30.03 in 10.0 mi SW 4.6 mph - N/A   Clear
2:54 AM 57.0 °F - 55.0 °F 93% 30.03 in 10.0 mi WSW 3.5 mph - N/A   Clear
3:54 AM 57.0 °F - 55.9 °F 96% 30.04 in 10.0 mi Calm Calm - N/A   Clear
4:54 AM 55.0 °F - 54.0 °F 96% 30.06 in 10.0 mi SW 4.6 mph - N/A   Clear
5:54 AM 55.0 °F - 54.0 °F 96% 30.06 in 10.0 mi Calm Calm - N/A   Clear
6:54 AM 59.0 °F - 57.0 °F 93% 30.07 in 10.0 mi SSW 3.5 mph - N/A   Clear
7:54 AM 64.9 °F - 60.1 °F 84% 30.08 in 10.0 mi SSW 4.6 mph - N/A   Clear
8:54 AM 71.1 °F - 61.0 °F 70% 30.09 in 10.0 mi South 3.5 mph - N/A   Clear
9:54 AM 75.9 °F - 59.0 °F 56% 30.08 in 10.0 mi West 5.8 mph - N/A   Clear
10:54 AM 79.0 °F - 59.0 °F 50% 30.07 in 10.0 mi North - - N/A   Clear
11:54 AM 81.0 °F 80.8 °F 55.9 °F 42% 30.06 in 10.0 mi West 8.1 mph - N/A   Clear
12:54 PM 82.0 °F 82.1 °F 59.0 °F 45% 30.04 in 10.0 mi West 8.1 mph - N/A   Clear
1:54 PM 82.9 °F 82.4 °F 57.0 °F 41% 30.02 in 10.0 mi Calm Calm - N/A   Clear
2:54 PM 84.9 °F 83.7 °F 55.9 °F 37% 30.01 in 10.0 mi West 9.2 mph - N/A   Clear
3:54 PM 87.1 °F 85.1 °F 54.0 °F 32% 30.00 in 10.0 mi NW 11.5 mph - N/A   Clear
4:54 PM 87.1 °F 85.3 °F 55.0 °F 33% 29.99 in 10.0 mi WSW 10.4 mph - N/A   Clear
5:54 PM 86.0 °F 84.5 °F 55.0 °F 35% 29.99 in 10.0 mi West 10.4 mph - N/A   Partly Cloudy
6:54 PM 82.9 °F 82.6 °F 57.9 °F 42% 29.99 in 10.0 mi West 5.8 mph - N/A   Clear
7:54 PM 78.1 °F - 59.0 °F 52% 30.01 in 10.0 mi NNW 5.8 mph - N/A   Clear
8:54 PM 73.9 °F - 57.9 °F 57% 30.03 in 10.0 mi North 5.8 mph - N/A   Clear
9:54 PM 70.0 °F - 60.1 °F 71% 30.05 in 10.0 mi Calm Calm - N/A   Clear
10:54 PM 66.9 °F - 59.0 °F 76% 30.05 in 10.0 mi Calm Calm - N/A   Clear
11:54 PM 63.0 °F - 59.0 °F 87% 30.06 in 10.0 mi SSW 3.5 mph - N/A   Clear